Wind_Speed
24 24 24 25 26 25 23 23 24 24 24 20 19 20 20 19 19 19 17 16 18 19 22 22 22 12 5 17 24 21 13 22 28 28 26 23 23 22 21 22 21 20 21 18 20
30 31 31 32 32 31 30 29 28 27 26 25 23 21 21 19 18 19 18 17 16 16 18 20 22 21 7 12 15 15 23 24 21 25 27 23 22 21 21 21 20 20 20 22 21
34 34 34 34 33 32 30 29 29 28 27 26 24 22 21 21 21 20 19 20 18 15 15 18 19 21 19 5 18 21 2 21 24 19 19 20 21 22 22 21 19 19 20 19 19
37 37 37 37 37 35 34 33 32 31 28 26 24 22 20 20 27 20 22 21 21 17 13 13 16 16 18 15 19 22 10 14 13 18 18 18 17 19 19 17 14 13 13 12 12
43 43 43 43 42 42 40 39 38 36 34 31 28 25 24 22 23 21 21 23 21 20 16 10 10 14 14 14 9 15 14 10 6 8 11 11 14 12 9 9 10 10 6 3 5
46 46 45 44 47 47 46 44 42 42 41 39 37 33 31 28 28 26 22 23 23 21 19 15 9 7 10 12 11 5 1 4 4 7 7 10 12 11 9 8 12 13 8 6 6
48 48 49 49 51 50 50 49 46 43 44 42 41 40 40 35 33 33 30 24 24 24 22 19 14 8 4 5 7 10 6 3 5 9 9 11 10 9 9 13 17 15 8 5 7
50 50 51 51 51 50 49 51 53 50 47 46 46 45 42 43 39 40 37 35 27 27 26 23 20 14 10 5 2 2 6 9 3 4 12 14 11 11 12 13 16 18 11 11 13
41 38 37 39 39 41 43 45 46 47 48 49 51 50 47 46 45 44 41 40 38 30 29 28 24 21 15 12 7 4 1 4 6 5 2 10 6 13 17 14 16 16 15 16 19
34 33 33 32 33 32 34 33 36 40 41 40 43 46 54 52 51 47 48 45 44 40 32 30 30 24 23 20 12 9 6 3 2 4 7 11 6 7 10 16 18 17 19 21 19
33 34 34 36 33 30 28 26 28 27 27 29 31 39 42 48 55 53 52 49 48 45 41 37 32 30 29 23 17 16 13 9 6 5 9 11 18 9 14 15 17 19 20 17 17
39 38 39 39 39 38 35 35 34 32 34 27 29 24 30 39 46 49 54 54 52 50 47 42 33 41 35 29 25 23 19 15 11 9 11 15 16 11 10 10 16 16 14 16 17
43 44 45 43 44 46 43 41 39 35 33 38 28 37 29 32 36 43 46 54 56 54 53 48 45 45 39 31 29 29 27 23 18 14 12 16 15 10 10 13 14 14 15 16 17
48 49 51 51 51 53 49 49 46 43 38 36 34 33 40 33 34 34 39 44 52 60 56 53 52 49 46 38 35 33 35 32 25 20 18 18 15 15 15 15 17 17 15 14 16
50 52 56 57 56 58 54 57 56 52 46 43 40 42 41 39 37 36 32 35 43 51 60 60 58 56 52 47 44 41 42 38 34 29 27 22 20 21 18 18 19 20 18 15 15
58 57 59 61 65 61 61 63 62 61 50 55 51 47 48 47 41 36 38 37 35 41 47 64 63 59 59 56 51 51 46 46 40 36 32 29 25 23 22 23 24 24 24 22 20
64 65 66 69 70 68 68 67 65 56 58 61 62 57 55 53 48 46 43 37 40 37 40 50 63 65 64 61 60 58 54 48 44 38 33 35 29 28 28 26 27 27 29 29 27
68 70 72 71 75 74 76 74 67 60 65 70 69 65 63 61 57 56 51 46 43 44 43 42 48 62 71 68 68 65 63 56 51 48 46 42 36 35 33 32 28 28 31 33 31
79 78 78 77 78 83 82 78 71 71 75 76 77 73 71 68 68 64 61 57 52 50 50 45 43 51 63 73 74 69 71 61 59 56 54 46 45 44 43 39 35 35 33 34 35
85 84 88 87 88 91 88 78 80 83 82 88 82 80 76 76 74 74 68 64 64 58 55 53 51 46 51 69 75 75 73 72 68 62 53 53 52 47 50 46 47 40 37 40 38
92 92 98 94 97 97 92 86 88 86 89 92 89 84 80 83 85 81 77 75 72 67 64 59 59 55 54 46 61 80 80 76 77 72 64 60 54 54 55 53 50 45 41 43 46
103 102 110 106 106 105 101 96 95 94 97 97 95 93 90 88 88 90 87 85 79 75 72 68 69 63 58 52 58 67 81 83 83 77 72 66 58 60 61 62 58 53 47 46 54
116 116 121 122 117 117 116 111 108 105 104 106 106 102 99 98 99 92 89 87 87 88 83 79 72 70 67 57 47 55 63 83 87 84 84 78 62 67 72 66 68 61 56 52 56
127 126 129 132 128 128 131 125 127 125 122 119 119 115 110 107 106 99 97 95 95 93 92 86 79 71 65 67 71 64 66 73 83 90 83 83 73 74 77 71 77 68 62 58 55
138 139 141 139 142 142 140 134 135 134 138 133 130 124 124 115 112 109 105 102 104 103 100 97 86 81 75 72 77 73 67 68 74 86 91 82 85 79 83 78 77 77 68 65 63
148 145 147 141 141 145 143 138 140 144 143 137 139 135 132 125 126 118 115 112 109 108 106 99 92 88 83 78 80 77 74 64 62 71 86 85 90 87 86 85 83 81 78 73 70
106 103 97 97 95 97 101 104 113 113 117 128 132 133 137 136 129 123 123 118 112 113 110 103 98 95 87 81 83 85 54 61 63 64 74 87 86 94 94 93 90 86 83 75 77
Wind_Direction
269 271 273 276 278 278 278 282 287 294 299 305 314 317 324 332 336 343 348 358 6 14 14 25 24 16 269 219 176 253 251 253 250 241 244 241 249 250 257 256 258 250 251 246 245
273 277 279 280 281 283 285 287 288 288 290 294 296 300 306 312 317 322 331 343 351 0 8 11 24 25 33 208 201 177 259 264 262 254 245 239 240 242 248 256 258 258 259 256 251
272 274 275 277 277 278 281 284 285 288 289 291 291 287 287 294 295 303 313 323 336 345 357 6 16 25 45 122 161 166 228 248 258 245 242 237 236 239 246 249 253 252 254 255 247
270 270 271 272 273 270 274 276 279 281 280 279 281 285 286 284 284 286 299 305 314 326 339 356 2 19 40 71 166 172 194 246 243 232 235 237 239 240 244 245 245 244 233 222 216
268 270 271 271 270 270 270 270 271 273 273 271 272 271 269 272 280 289 284 289 296 306 318 326 353 2 19 43 91 172 211 222 240 223 231 231 232 226 219 221 204 180 160 166 207
272 274 274 274 272 270 271 270 266 267 266 266 266 265 266 264 271 276 278 280 281 286 295 309 309 344 357 15 33 45 337 261 268 237 230 244 227 201 210 218 203 187 191 207 221
276 276 277 279 278 275 274 273 269 266 265 264 262 263 264 260 263 271 272 269 273 273 276 284 292 287 317 341 30 40 36 325 258 238 231 226 222 222 231 224 219 223 217 168 166
279 280 281 280 279 280 279 277 273 269 266 262 261 261 258 258 257 260 265 267 262 266 267 269 279 274 268 271 272 68 54 58 12 276 244 218 225 235 228 244 235 233 171 152 144
281 284 284 284 282 279 278 275 273 273 271 266 261 256 255 254 251 253 255 260 261 256 262 264 267 265 261 254 251 255 291 22 49 31 26 197 237 247 248 239 218 187 151 153 140
278 276 281 282 281 284 284 284 283 276 273 271 267 263 255 249 251 248 249 252 255 255 253 256 256 257 258 253 244 257 249 230 210 86 105 162 197 317 226 202 182 154 150 145 145
282 278 278 285 283 280 287 282 295 300 281 284 286 271 265 258 247 245 245 246 246 249 249 248 254 252 254 248 239 247 252 232 216 225 135 150 164 195 179 184 163 156 157 156 152
281 281 281 287 286 287 291 296 290 296 299 294 301 279 284 268 258 250 241 241 242 243 244 245 238 245 241 243 239 240 242 245 231 205 179 164 166 185 190 185 174 172 172 163 156
278 279 281 282 281 284 287 287 289 284 294 296 303 293 292 284 273 257 250 239 239 240 240 240 236 243 245 238 240 244 242 237 236 221 209 197 188 200 193 202 202 200 179 172 167
281 280 279 282 279 280 283 281 283 283 290 285 295 286 284 287 284 271 262 248 240 237 238 239 239 240 240 236 237 240 245 243 230 229 216 211 206 204 204 207 212 196 192 193 181
276 275 277 279 278 278 277 276 276 278 285 281 283 281 282 278 279 281 272 264 251 239 236 238 238 238 239 235 231 231 236 239 236 226 229 221 214 210 210 205 210 212 204 206 214
282 281 279 277 274 277 276 275 275 278 283 276 277 278 281 280 277 278 275 278 274 256 237 238 236 235 237 237 234 232 231 237 233 231 229 231 221 219 219 217 216 214 217 217 226
281 283 282 280 276 276 276 276 275 279 276 273 272 270 274 277 274 274 272 272 276 271 258 241 238 236 236 236 238 235 233 233 238 235 236 236 227 234 229 224 227 226 225 227 235
276 276 277 276 277 276 275 271 274 274 271 272 268 269 270 269 272 272 272 274 272 273 269 266 245 239 235 235 234 234 234 229 232 236 237 237 231 237 233 228 221 203 235 236 237
276 276 276 275 276 278 273 274 276 269 268 264 267 267 266 266 267 267 269 269 271 272 272 270 259 249 239 237 236 237 240 237 231 232 233 235 235 235 239 231 234 231 234 237 241
274 277 278 276 275 275 275 275 272 265 263 264 263 263 265 264 261 264 264 266 268 269 266 268 262 261 259 241 238 240 236 237 236 233 234 233 235 236 238 240 240 231 234 242 239
272 272 275 275 274 273 273 271 268 267 265 263 259 258 257 258 259 259 261 265 263 264 265 262 267 264 264 258 245 239 239 239 240 235 231 229 233 238 241 242 241 243 239 244 250
269 269 270 271 271 272 271 268 265 264 264 262 260 257 257 256 255 256 257 261 260 261 262 262 260 265 266 259 257 248 239 238 240 238 236 233 229 236 239 239 243 241 237 241 247
268 267 268 267 267 268 268 267 265 262 261 261 259 256 254 255 255 255 254 255 257 260 259 258 260 259 264 268 269 268 252 240 238 236 236 235 226 231 236 242 244 243 241 238 247
272 270 269 270 269 267 268 269 269 267 263 257 257 257 255 254 254 253 254 254 255 255 258 259 258 262 263 267 264 255 252 247 239 236 237 238 233 233 237 233 241 241 242 243 245
277 275 273 273 272 271 269 265 267 267 265 260 258 253 253 251 251 249 250 251 252 253 254 255 258 259 261 261 263 264 260 255 246 239 236 235 237 232 237 237 238 246 244 243 239
281 280 278 275 274 272 270 269 266 265 263 261 260 256 256 253 249 248 249 250 251 252 255 256 258 258 259 262 264 261 260 255 252 245 239 234 234 237 236 238 238 240 243 241 246
278 276 272 269 266 264 261 258 253 250 254 255 253 255 255 254 253 250 250 251 252 253 257 258 262 261 261 259 260 255 263 260 251 250 244 238 234 234 236 237 239 240 244 243 242
Height
10984 10985 10985 10986 10986 10987 10988 10987 10986 10985 10984 10985 10984 10982 10982 10982 10980 10980 10980 10978 10977 10975 10973 10969 10965 10961 10959 10960 10968 10960 10971 10971 10971 10972 10973 10974 10975 10976 10977 10978 10978 10978 10979 10980 10980
10981 10981 10981 10981 10982 10982 10982 10983 10983 10983 10982 10981 10982 10982 10980 10981 10980 10979 10979 10978 10977 10976 10974 10971 10966 10962 10959 10958 10962 10961 10965 10967 10971 10971 10970 10971 10972 10973 10974 10974 10975 10974 10976 10976 10976
10976 10975 10975 10975 10976 10977 10978 10978 10978 10979 10980 10980 10979 10978 10978 10977 10976 10977 10977 10978 10977 10977 10975 10972 10969 10965 10962 10959 10962 10963 10962 10962 10964 10964 10966 10968 10968 10970 10971 10971 10972 10972 10972 10972 10973
10970 10970 10970 10970 10970 10971 10972 10973 10973 10973 10975 10975 10976 10976 10975 10974 10971 10975 10975 10976 10976 10976 10976 10974 10971 10967 10965 10964 10965 10963 10960 10959 10961 10963 10964 10965 10966 10966 10968 10969 10969 10970 10970 10970 10971
10962 10962 10962 10963 10962 10963 10964 10966 10968 10968 10968 10969 10970 10971 10971 10971 10969 10971 10972 10972 10974 10974 10975 10975 10973 10970 10966 10965 10965 10968 10964 10962 10960 10960 10962 10962 10964 10965 10966 10967 10968 10968 10970 10970 10971
10953 10952 10952 10952 10952 10954 10955 10957 10959 10960 10961 10961 10963 10965 10965 10966 10966 10965 10967 10969 10969 10971 10972 10973 10973 10972 10969 10965 10963 10961 10960 10958 10957 10959 10961 10962 10964 10965 10966 10967 10968 10968 10968 10969 10969
10943 10943 10942 10942 10941 10943 10944 10944 10947 10949 10951 10954 10954 10956 10958 10960 10960 10960 10961 10964 10964 10965 10968 10969 10971 10971 10971 10968 10965 10962 10960 10959 10957 10958 10959 10963 10966 10966 10967 10967 10967 10967 10966 10967 10968
10933 10932 10931 10931 10930 10929 10930 10931 10932 10935 10940 10942 10945 10946 10947 10949 10953 10954 10955 10956 10960 10959 10961 10965 10967 10968 10969 10968 10967 10965 10963 10961 10959 10958 10959 10962 10964 10965 10965 10967 10967 10965 10965 10966 10967
10925 10923 10922 10921 10920 10918 10918 10918 10920 10921 10923 10927 10930 10934 10936 10938 10941 10944 10947 10948 10951 10954 10955 10958 10961 10963 10965 10965 10966 10965 10963 10962 10959 10958 10958 10959 10963 10962 10963 10963 10964 10964 10963 10966 10967
10916 10915 10913 10912 10911 10911 10910 10909 10909 10911 10912 10913 10914 10918 10921 10927 10928 10933 10937 10940 10941 10946 10949 10951 10953 10958 10959 10961 10963 10964 10963 10962 10961 10960 10957 10957 10962 10962 10962 10962 10963 10962 10965 10967 10969
10908 10908 10907 10905 10904 10902 10903 10902 10902 10902 10904 10904 10904 10906 10906 10909 10914 10919 10924 10928 10932 10935 10940 10942 10947 10952 10953 10956 10960 10960 10960 10960 10960 10962 10959 10959 10960 10961 10961 10966 10963 10964 10966 10968 10969
10897 10897 10899 10897 10895 10895 10895 10894 10895 10896 10894 10897 10896 10896 10896 10897 10898 10906 10910 10915 10921 10924 10930 10936 10941 10937 10944 10950 10953 10955 10957 10958 10958 10960 10959 10958 10961 10962 10964 10965 10965 10967 10968 10969 10970
10889 10887 10887 10889 10886 10885 10886 10885 10887 10888 10890 10886 10891 10887 10888 10887 10889 10890 10896 10903 10907 10914 10918 10926 10926 10928 10936 10944 10948 10950 10952 10953 10955 10958 10959 10958 10958 10961 10962 10965 10967 10968 10969 10970 10971
10877 10877 10874 10875 10876 10874 10876 10872 10876 10878 10883 10881 10881 10882 10879 10881 10879 10883 10882 10889 10895 10898 10906 10915 10916 10920 10925 10935 10940 10945 10945 10947 10951 10953 10954 10957 10958 10960 10962 10964 10967 10968 10970 10971 10972
10863 10863 10861 10861 10860 10860 10864 10859 10863 10865 10871 10872 10873 10868 10868 10872 10873 10872 10874 10876 10879 10885 10896 10897 10905 10911 10916 10923 10928 10934 10935 10939 10943 10948 10950 10953 10955 10955 10960 10962 10966 10968 10969 10970 10972
10848 10848 10847 10847 10840 10848 10848 10846 10848 10851 10862 10852 10861 10857 10854 10858 10861 10864 10865 10867 10868 10873 10879 10882 10889 10899 10904 10908 10917 10919 10926 10930 10935 10941 10945 10948 10952 10954 10955 10959 10962 10963 10965 10967 10967
10830 10829 10828 10826 10824 10828 10828 10831 10833 10844 10843 10842 10838 10844 10842 10843 10847 10852 10853 10858 10861 10862 10865 10866 10877 10883 10890 10897 10901 10908 10914 10923 10928 10935 10943 10942 10948 10949 10952 10955 10957 10958 10960 10961 10963
10813 10812 10808 10807 10800 10807 10806 10808 10821 10831 10824 10813 10818 10826 10831 10828 10831 10832 10840 10844 10849 10851 10853 10858 10867 10866 10872 10881 10884 10891 10899 10910 10918 10924 10930 10934 10942 10943 10944 10946 10950 10954 10954 10956 10958
10789 10788 10785 10784 10782 10780 10781 10791 10806 10803 10797 10797 10793 10802 10811 10815 10813 10816 10823 10830 10832 10837 10842 10845 10851 10853 10861 10863 10869 10884 10886 10903 10905 10910 10915 10928 10930 10933 10935 10941 10944 10948 10948 10948 10952
10764 10763 10757 10759 10756 10751 10757 10776 10774 10775 10774 10762 10776 10781 10788 10792 10796 10795 10806 10814 10815 10821 10825 10832 10834 10840 10843 10846 10862 10867 10873 10881 10890 10899 10912 10914 10918 10926 10926 10932 10937 10940 10942 10940 10944
10738 10737 10721 10730 10725 10724 10733 10744 10741 10747 10748 10746 10748 10756 10767 10768 10768 10776 10786 10793 10800 10801 10807 10815 10819 10824 10830 10846 10846 10846 10856 10867 10873 10882 10895 10902 10911 10915 10917 10921 10925 10927 10930 10932 10933
10704 10703 10686 10694 10693 10692 10702 10707 10708 10717 10714 10718 10720 10730 10735 10739 10744 10752 10764 10772 10774 10783 10790 10797 10799 10809 10817 10826 10825 10832 10843 10847 10851 10872 10882 10889 10903 10903 10904 10906 10909 10914 10920 10923 10922
10658 10662 10647 10646 10663 10657 10660 10671 10674 10679 10684 10684 10685 10694 10704 10710 10710 10729 10738 10749 10752 10755 10768 10775 10786 10790 10800 10810 10819 10822 10827 10829 10836 10845 10856 10867 10895 10887 10884 10895 10896 10903 10908 10911 10913
10617 10619 10609 10599 10616 10621 10614 10631 10632 10639 10642 10639 10644 10654 10670 10678 10686 10703 10710 10722 10727 10734 10738 10750 10764 10777 10790 10795 10788 10797 10807 10808 10812 10824 10847 10855 10873 10872 10868 10880 10876 10887 10895 10901 10907
10557 10560 10553 10561 10554 10555 10558 10579 10584 10594 10587 10592 10606 10617 10618 10646 10658 10669 10680 10693 10695 10706 10719 10729 10746 10760 10771 10771 10770 10780 10789 10792 10797 10815 10816 10847 10845 10860 10852 10863 10868 10869 10881 10887 10890
10494 10488 10484 10488 10488 10489 10492 10501 10514 10531 10525 10551 10562 10572 10585 10606 10603 10634 10649 10663 10673 10685 10693 10711 10731 10735 10746 10754 10752 10760 10767 10782 10791 10799 10807 10814 10823 10838 10843 10841 10848 10852 10859 10871 10876
10425 10424 10425 10424 10426 10428 10428 10432 10443 10463 10480 10491 10498 10534 10545 10554 10582 10607 10618 10638 10655 10660 10670 10690 10703 10712 10731 10735 10729 10732 10768 10768 10772 10774 10782 10787 10818 10809 10816 10822 10830 10838 10845 10858 10863